Dewpoint
74 74 71 70 56 54 51 53 55 53 53 55 53 55 53 57 53 55 64 64 66 67 70 72 75 74 74 74 74 74 74 73 73 73 73 72 71 72 73 73 72 73 73 72 73 72 72 72 72
71 71 69 61 50 49 50 55 54 55 55 56 57 58 58 59 64 64 63 65 66 67 69 70 75 75 74 74 74 73 73 73 73 72 71 71 72 73 73 72 72 72 72 72 72 71 72 71 71
70 68 59 53 52 49 50 56 57 57 58 55 57 59 59 61 65 63 64 66 66 67 68 71 74 75 74 73 73 73 73 72 72 72 71 73 72 72 71 72 72 72 72 72 72 71 71 72 72
66 62 58 50 49 51 53 55 57 58 58 58 58 58 62 65 64 64 65 65 65 66 67 73 74 72 73 73 73 73 72 72 72 71 72 73 71 72 73 72 72 72 72 72 72 72 71 71 71
61 58 52 50 51 52 53 56 57 55 56 57 57 58 61 66 66 65 65 64 64 65 68 71 73 73 72 72 72 72 72 72 73 72 73 72 71 71 71 72 72 72 72 72 71 72 71 71 71
54 57 48 45 48 53 53 55 56 56 56 58 57 59 63 66 66 65 65 64 65 65 67 70 72 72 72 72 73 72 72 72 72 73 73 72 72 70 71 70 70 71 72 71 71 71 71 71 70
49 52 47 46 47 50 53 56 54 54 55 55 57 57 64 64 66 65 64 64 65 67 67 69 69 71 71 72 74 74 72 70 71 73 73 72 72 72 69 70 71 69 71 70 70 71 71 71 70
51 54 48 48 47 46 53 55 57 55 56 58 58 57 62 65 65 65 66 66 67 68 68 67 67 67 68 70 74 74 74 72 71 71 73 73 73 72 71 69 68 70 70 70 70 70 70 70 70
56 50 44 42 45 46 54 53 57 58 58 58 58 58 60 65 64 64 67 68 68 68 66 65 65 66 68 66 71 74 73 74 73 71 72 72 72 69 69 69 69 68 69 70 69 69 70 69 69
51 48 47 49 48 45 51 52 55 55 56 58 61 62 64 65 63 63 63 65 66 66 64 64 63 65 65 63 66 71 72 67 72 70 68 67 66 66 66 65 70 70 70 70 70 69 69 68 66
48 47 48 48 50 50 49 53 55 53 53 56 59 64 65 65 63 61 61 62 62 64 63 63 63 65 66 64 64 68 70 68 67 70 67 66 65 65 64 64 63 65 69 66 67 68 66 63 69
43 44 47 49 50 51 49 52 53 53 53 56 60 63 64 63 62 61 60 61 61 62 64 63 63 65 65 66 65 65 66 70 65 67 69 66 65 64 64 62 60 63 63 65 67 66 65 64 71
42 41 42 45 48 50 51 50 51 54 58 58 61 63 63 62 62 61 60 60 60 60 63 63 63 65 65 66 66 65 65 66 66 67 68 65 62 63 65 64 62 61 61 61 65 70 67 66 69
31 39 41 43 47 48 50 49 53 55 59 60 61 61 62 62 61 62 61 61 61 62 62 63 65 66 66 66 67 66 66 65 64 65 65 68 63 64 64 66 66 65 63 63 65 68 70 69 68
30 36 43 45 49 49 52 49 49 53 58 59 59 60 61 62 62 63 63 62 63 63 65 65 67 67 67 66 68 68 66 64 64 65 66 69 68 66 66 65 66 66 67 68 67 67 68 68 69
35 37 37 40 47 50 49 37 46 55 57 57 58 59 60 62 63 64 65 65 65 65 67 67 66 67 67 67 68 68 66 64 65 65 66 68 69 69 69 69 69 70 68 69 67 70 68 68 67
36 32 32 34 44 45 47 39 41 49 53 55 59 59 60 62 63 65 66 67 67 67 68 69 68 67 67 68 67 69 67 67 65 65 65 67 71 71 70 71 71 70 68 70 69 70 69 69 68
30 30 31 33 34 40 39 39 38 42 51 51 57 59 60 61 63 64 66 67 67 68 69 69 69 69 69 69 70 68 68 68 65 65 68 70 70 69 70 71 70 71 68 67 68 69 69 69 68
32 31 29 31 31 29 31 32 33 36 48 51 52 57 59 61 63 64 65 66 66 68 68 69 70 70 70 69 68 67 65 64 65 65 71 69 71 71 71 71 70 68 70 69 70 70 69 69 69
31 30 28 30 30 27 29 36 37 38 43 49 51 54 58 60 61 64 64 65 65 67 69 69 70 71 71 69 68 67 65 65 64 66 71 71 71 71 71 70 69 69 71 69 68 70 68 70 69
29 29 28 27 28 28 34 34 33 35 46 47 50 52 55 59 60 63 64 64 65 66 67 69 70 71 71 71 69 69 68 67 68 69 69 72 71 71 70 71 70 69 71 68 70 70 69 69 69
27 29 28 26 25 23 34 28 30 32 32 37 45 51 54 56 59 61 62 63 63 64 66 69 70 71 71 71 69 69 66 65 65 65 68 71 70 69 71 71 71 71 69 70 71 70 69 70 68
26 28 26 24 25 23 27 28 28 31 28 33 40 46 51 54 56 58 60 61 62 64 65 66 69 70 70 71 70 69 68 65 68 68 69 70 69 68 68 68 68 70 68 68 70 70 69 70 70
23 25 25 26 27 20 24 28 25 25 28 34 36 43 47 50 53 56 58 59 61 63 64 65 67 69 70 71 71 70 69 68 67 69 70 69 69 69 68 68 68 68 69 68 69 71 70 70 70
14 21 23 23 24 20 30 28 24 27 28 30 34 38 43 49 50 53 55 56 59 61 62 63 65 68 70 70 70 70 70 70 69 70 69 69 69 68 68 69 69 67 68 68 68 71 70 70 70
4 11 19 22 21 20 32 23 24 29 30 32 34 35 37 40 47 51 54 56 58 60 61 62 64 67 68 69 69 70 70 69 70 69 69 68 68 68 69 68 69 69 68 68 67 71 70 70 71
2 7 16 20 21 19 22 25 27 26 27 31 31 34 36 37 39 49 53 56 58 61 62 63 64 67 68 69 69 70 69 69 68 69 69 68 69 69 69 69 68 68 69 69 69 70 69 71 70
7 13 16 19 17 15 17 22 24 25 25 27 30 32 34 40 43 47 52 55 59 60 63 64 65 67 68 68 69 69 70 70 69 69 69 68 68 69 68 68 68 69 69 70 70 68 67 70 71
7 16 17 21 20 16 17 19 23 27 24 26 27 30 36 42 46 50 53 56 59 60 61 62 65 66 68 67 68 69 68 69 69 68 68 68 68 68 68 69 69 69 69 70 71 70 70 70 70
6 9 20 20 20 18 18 18 25 24 26 29 27 29 40 48 49 51 54 57 59 61 62 64 66 67 67 68 69 69 69 68 68 68 68 68 68 69 69 70 70 69 70 70 70 69 69 69 69
Wind_Speed
16 15 6 2 5 3 4 4 5 8 7 4 13 2 5 6 3 3 14 18 25 25 23 20 18 18 17 17 17 17 16 16 16 15 13 12 10 8 7 7 8 9 9 9 11 11 11 11 14
13 9 3 2 3 2 3 3 7 1 3 9 7 6 2 5 8 10 20 22 26 25 24 21 18 18 17 17 17 17 17 16 15 14 13 11 9 8 7 7 7 8 10 10 11 10 11 12 13
10 4 4 1 4 4 4 2 7 10 7 11 5 1 1 4 5 18 18 26 25 23 22 21 18 17 17 17 16 16 16 15 15 13 11 10 9 8 7 7 8 8 9 10 11 11 12 12 12
7 5 5 3 6 4 3 9 10 5 4 4 2 6 8 2 11 9 26 25 24 22 21 23 19 18 17 16 16 15 15 14 13 13 11 12 9 6 7 8 9 9 9 10 11 11 11 12 11
7 3 2 8 8 4 4 8 5 4 3 6 4 5 6 4 5 19 25 23 23 22 20 21 19 17 17 16 15 15 13 12 12 12 11 13 10 7 7 5 7 8 10 9 9 10 10 11 11
5 4 6 12 9 4 5 8 5 3 5 4 4 8 5 9 18 23 23 22 21 19 20 21 18 17 17 17 15 15 13 12 11 10 14 12 11 8 7 7 5 5 8 9 9 9 9 9 9
7 5 8 6 9 6 5 6 7 4 5 2 10 6 5 12 22 24 23 21 20 20 17 19 18 17 16 15 15 15 15 13 12 10 12 12 11 9 8 7 5 6 6 9 9 8 8 8 8
5 4 3 3 6 10 7 6 4 2 6 9 6 5 9 17 24 23 20 17 17 17 18 18 17 17 15 16 13 14 13 13 12 11 9 10 9 9 8 8 7 5 6 6 6 6 6 6 5
5 5 7 8 3 8 7 5 6 4 8 2 6 3 20 25 25 24 23 21 19 19 20 18 17 16 14 14 15 12 13 12 12 11 10 9 6 5 7 2 9 7 5 5 5 5 5 5 5
6 3 3 2 1 3 5 2 8 6 7 5 7 9 25 28 26 26 26 25 25 21 20 18 17 17 16 13 14 13 11 12 11 11 12 10 7 7 4 8 5 5 5 5 6 6 6 8 4
3 2 2 1 4 5 1 4 5 4 5 5 10 20 25 26 25 26 25 23 24 23 20 19 18 17 16 14 12 12 13 10 12 11 11 8 6 6 9 10 11 11 11 8 11 11 11 8 7
5 1 3 4 3 4 4 2 5 6 5 2 13 22 26 26 27 27 25 22 22 22 21 20 20 17 16 13 14 11 11 12 11 12 12 8 8 5 4 7 7 5 7 6 6 5 8 5 9
7 1 3 4 6 6 6 7 4 4 2 8 18 22 24 22 22 22 21 20 20 21 20 19 20 18 17 14 13 12 12 12 13 11 13 10 9 6 5 5 8 8 8 7 9 7 8 8 7
5 7 8 4 6 7 8 9 5 5 8 14 18 20 21 21 21 19 21 21 22 20 20 19 18 18 18 16 13 12 11 12 12 11 14 13 10 7 6 6 7 6 9 9 7 5 6 8 10
4 7 6 4 1 2 3 11 11 6 10 13 16 19 20 20 20 20 20 21 21 20 19 20 19 19 19 17 16 13 11 13 13 11 12 14 14 9 9 9 9 8 7 7 8 10 10 7 11
5 7 12 6 3 3 5 8 5 9 11 12 15 17 20 21 21 20 20 20 19 18 19 22 21 21 21 19 17 14 13 13 13 12 12 14 14 12 11 10 11 6 7 5 10 7 9 9 11
9 14 9 5 2 2 8 11 3 1 11 13 15 17 19 19 21 22 21 20 20 19 18 21 21 21 20 19 17 17 14 11 13 12 13 14 14 14 13 11 11 4 7 8 7 8 9 8 8
11 10 7 8 4 7 11 17 17 9 11 15 16 16 19 20 23 22 23 22 21 18 19 20 21 21 20 18 16 15 16 17 16 13 13 11 12 13 12 11 10 7 9 8 7 6 9 8 8
6 8 9 3 1 6 13 17 18 12 11 12 14 17 18 19 19 22 23 24 23 22 21 21 22 22 20 21 20 20 19 17 16 14 10 15 10 9 10 10 10 12 9 9 7 4 9 10 5
12 12 14 4 4 11 14 16 16 10 11 11 14 15 17 17 19 21 23 24 25 26 24 24 24 23 24 21 18 16 15 10 14 9 9 12 9 9 8 11 11 10 6 8 12 9 10 9 10
17 17 11 8 9 13 10 16 11 8 7 10 10 13 16 19 20 21 23 25 25 26 28 27 27 25 25 22 18 14 10 12 10 13 10 10 9 4 8 8 9 11 9 10 12 8 10 11 9
21 15 8 8 11 11 3 15 3 3 10 10 10 13 15 18 20 20 22 24 26 27 26 26 26 25 26 26 21 22 21 20 20 18 15 13 6 4 6 6 8 12 11 12 9 8 11 13 11
22 7 8 9 14 13 15 10 10 4 9 8 1 10 14 17 19 21 23 23 24 24 24 23 24 25 25 25 26 23 23 20 10 13 18 15 10 12 11 11 11 10 13 12 11 11 12 13 13
14 12 11 12 15 15 19 8 7 3 8 5 5 7 12 16 17 18 18 18 20 21 22 21 22 24 24 25 26 25 23 22 19 14 15 17 18 17 16 11 10 16 17 17 14 15 15 13 13
20 20 19 18 20 18 5 7 16 5 5 6 0 4 7 13 16 17 18 18 18 19 20 19 20 23 23 24 24 25 25 21 20 18 18 18 18 18 17 14 14 18 21 19 15 14 14 17 16
23 28 23 19 18 14 8 10 11 2 6 9 8 8 6 8 12 15 16 17 17 18 19 19 19 20 21 22 23 22 21 18 22 22 16 18 18 20 19 21 22 21 20 18 18 13 17 15 13
23 30 29 25 9 14 7 7 10 15 6 2 3 3 10 9 9 11 13 14 14 16 18 19 17 18 19 20 19 19 19 20 18 16 17 14 16 19 21 23 21 19 16 18 16 16 13 15 15
19 20 22 17 19 18 16 10 11 4 7 5 2 4 3 3 4 9 12 14 14 15 16 16 15 15 17 17 17 17 17 18 15 16 16 15 17 18 17 16 17 17 15 13 13 15 14 15 15
20 20 21 23 26 20 17 13 9 8 11 5 5 4 3 3 5 9 12 15 15 14 16 17 16 15 16 16 15 15 15 15 15 16 16 16 17 15 14 14 14 13 14 14 14 15 15 15 16
24 29 26 18 17 16 18 12 8 5 6 7 13 8 6 2 3 9 13 16 16 15 15 16 15 15 15 14 14 15 14 15 16 15 16 16 15 14 14 13 13 13 13 13 13 13 13 14 17
Wind_Direction
157 166 152 146 32 46 59 69 41 117 131 81 135 119 109 10 326 67 139 148 145 147 147 151 143 137 132 126 124 125 129 137 143 141 138 137 138 138 143 119 114 110 108 99 101 103 109 112 109
153 150 193 285 143 64 73 136 134 138 107 156 124 129 140 95 71 129 142 147 151 148 152 150 145 141 137 132 129 129 132 133 136 138 137 137 137 121 115 127 124 123 113 103 107 105 109 106 109
156 195 267 158 110 156 100 143 124 116 125 154 163 288 59 67 99 147 141 149 150 150 155 142 149 144 144 143 139 137 138 137 138 139 142 141 131 124 126 123 122 117 110 112 116 115 110 112 109
178 198 214 150 131 114 97 130 152 152 130 187 172 113 99 14 144 150 149 153 151 153 151 142 150 147 150 148 146 145 144 145 146 149 167 132 129 128 129 112 110 116 124 124 121 114 119 119 118
232 231 129 110 117 140 179 155 158 147 103 143 205 106 88 149 151 147 152 157 152 156 142 155 151 153 156 154 153 150 151 151 156 164 147 147 142 130 130 122 104 126 115 114 119 119 118 118 118
253 276 137 100 109 143 158 176 191 159 123 120 151 117 85 129 146 156 155 159 154 151 154 148 153 159 161 161 167 158 155 163 169 174 159 168 150 143 142 127 128 119 120 120 120 122 121 123 117
278 284 80 107 96 129 120 140 179 149 129 144 145 100 115 150 152 157 159 157 158 152 162 161 166 168 166 170 159 162 162 169 171 178 165 170 168 150 146 140 129 138 139 126 119 116 119 128 124
277 273 125 85 79 86 122 152 153 153 88 120 167 143 166 162 158 158 151 158 156 150 161 167 170 171 173 172 171 166 168 168 169 178 181 169 171 161 160 158 162 142 148 130 131 126 126 137 137
252 239 130 104 117 104 137 147 145 112 140 162 160 138 142 159 163 163 159 168 158 182 168 175 173 174 175 178 177 176 177 178 175 180 185 181 177 181 174 150 141 168 167 152 160 157 151 146 145
243 270 101 27 56 51 132 202 148 171 165 150 126 110 140 159 169 173 175 174 172 178 179 174 179 184 172 183 174 188 186 192 191 192 175 209 184 185 238 188 181 196 177 192 174 187 185 205 168
202 288 11 241 270 295 162 187 170 196 181 176 167 148 156 164 175 180 183 183 179 174 180 178 183 187 179 179 181 189 198 197 191 193 192 207 196 183 212 179 190 193 186 214 186 191 217 209 144
262 220 249 293 301 288 237 188 202 222 69 43 154 161 164 172 180 184 185 185 183 180 183 183 183 189 195 187 187 198 200 181 210 186 210 195 216 198 209 208 213 234 197 177 261 254 243 200 141
237 186 237 265 266 270 287 268 278 228 148 133 145 163 173 177 182 188 188 186 188 187 189 190 186 189 200 202 201 196 208 204 210 167 210 216 219 215 209 191 218 219 233 229 213 189 239 217 167
326 296 281 273 272 264 263 260 275 98 159 148 157 169 178 181 180 183 191 192 194 193 194 197 198 192 203 203 212 215 204 208 222 198 204 214 235 205 218 227 210 241 246 246 249 213 218 223 215
273 265 247 208 284 10 260 273 240 131 165 164 171 171 180 184 183 187 193 195 197 196 195 202 203 201 202 207 206 217 221 215 220 217 208 214 221 218 242 225 238 235 234 240 246 240 231 243 242
249 245 213 121 200 103 231 266 99 156 183 184 181 179 183 189 190 185 192 196 198 201 195 203 201 207 200 207 205 221 223 233 215 221 218 220 221 234 228 241 253 202 257 234 244 251 248 239 239
206 240 234 142 228 215 235 277 359 246 211 206 196 189 190 191 197 191 193 196 199 202 196 201 204 206 205 210 211 214 223 236 237 221 226 212 224 226 239 236 247 232 232 241 256 249 247 244 228
201 231 223 259 104 235 262 268 277 234 231 232 202 206 196 197 202 199 200 197 203 203 203 202 205 206 202 209 212 216 220 219 229 221 227 259 227 233 238 253 253 244 250 251 261 270 277 246 230
276 258 257 239 307 293 277 277 279 288 232 238 227 209 205 207 202 201 205 200 203 206 206 208 204 203 201 207 205 213 219 215 216 221 219 231 243 245 260 259 261 251 256 269 257 246 261 256 214
232 244 247 273 209 310 298 287 282 266 258 239 233 218 214 205 201 202 206 205 207 207 206 206 207 203 204 208 216 217 217 221 219 211 205 225 222 229 239 259 263 256 253 252 260 226 256 248 185
231 239 247 287 303 273 281 268 258 225 248 259 249 229 208 208 208 201 205 208 209 212 209 209 208 206 204 210 206 205 210 216 202 197 215 195 202 204 230 232 258 264 243 244 246 253 256 254 218
238 212 260 285 277 284 292 282 208 281 295 235 244 214 210 209 207 207 206 210 210 214 212 213 214 208 208 208 209 204 209 211 214 210 201 202 172 226 233 255 266 272 265 260 246 237 244 257 242
237 200 242 273 279 280 240 251 263 179 351 28 142 200 197 207 206 207 210 210 216 210 211 212 212 211 211 208 214 207 218 216 192 203 203 198 201 218 240 232 259 270 255 247 248 238 236 243 243
241 223 229 249 258 261 251 255 261 49 8 3 85 150 190 196 205 207 212 212 210 212 211 208 209 212 210 208 210 216 217 222 214 184 197 200 196 208 226 232 250 257 256 256 253 241 242 247 248
229 224 231 232 232 240 104 239 261 313 350 343 55 153 184 192 199 204 207 205 206 203 204 206 205 209 209 210 211 214 221 220 211 200 197 197 200 194 199 214 244 245 246 249 251 244 234 234 235
216 223 223 223 240 232 161 247 245 22 308 297 255 237 224 209 206 203 203 202 201 205 205 205 200 206 208 208 212 215 218 221 219 221 201 210 203 195 204 221 237 245 245 245 248 246 243 235 225
207 224 226 241 223 279 226 214 266 252 258 251 263 243 221 234 205 205 198 195 192 193 195 199 198 202 202 203 205 210 212 217 217 201 210 213 191 207 217 221 236 240 247 247 244 245 238 238 220
245 218 214 229 240 237 242 234 258 261 277 319 249 288 148 150 198 191 188 186 185 187 186 190 193 198 196 197 198 200 206 210 208 207 206 209 215 223 229 213 227 238 231 246 246 248 246 237 234
204 234 218 231 221 246 239 233 221 232 265 277 338 8 66 119 153 173 175 178 179 179 178 183 185 188 190 196 193 194 197 196 198 196 202 209 224 216 218 228 236 226 224 229 238 254 259 242 233
218 216 213 223 208 241 280 276 141 275 294 292 305 322 40 29 141 169 174 176 177 178 179 180 182 185 189 186 184 187 187 189 198 196 201 210 214 217 223 223 224 222 219 225 232 253 250 245 229